Time,TemperatureF,DewpointF,PressureIn,WindDirection,WindDirectionDegrees,WindSpeedMPH,WindSpeedGustMPH,Humidity,HourlyPrecipIn,Conditions,Clouds,dailyrainin,SoftwareType,DateUTC
2015-01-30 00:22:00,34.0,30.0,30.44,NW,320,8.0,16.0,84,0.00,,,0.02,,2015-01-30 06:22:00,
2015-01-30 00:43:00,34.0,30.0,30.44,WNW,292,7.0,18.0,84,0.00,,,0.02,,2015-01-30 06:43:00,
2015-01-30 00:52:00,34.0,30.0,30.44,WNW,292,7.0,18.0,84,0.00,,,0.02,,2015-01-30 06:52:00,
2015-01-30 01:12:00,34.0,29.0,30.45,NW,307,7.0,12.0,83,0.00,,,0.02,,2015-01-30 07:12:00,
2015-01-30 01:22:00,34.0,29.0,30.45,North,5,5.0,13.0,83,0.00,,,0.02,,2015-01-30 07:22:00,
2015-01-30 01:42:00,34.0,29.0,30.46,NW,308,5.0,11.0,83,0.00,,,0.02,,2015-01-30 07:42:00,
2015-01-30 01:53:00,34.0,29.0,30.46,NNW,333,4.0,8.0,83,0.00,,,0.02,,2015-01-30 07:53:00,
2015-01-30 02:22:00,34.0,29.0,30.46,NNW,342,4.0,9.0,83,0.00,,,0.02,,2015-01-30 08:22:00,
2015-01-30 02:42:00,34.0,29.0,30.47,NW,326,0.0,4.0,83,0.00,,,0.02,,2015-01-30 08:42:00,
2015-01-30 02:52:00,34.0,29.0,30.47,NW,326,7.0,12.0,82,0.00,,,0.02,,2015-01-30 08:52:00,
2015-01-30 03:12:00,34.0,29.0,30.47,North,355,5.0,11.0,81,0.00,,,0.02,,2015-01-30 09:12:00,
2015-01-30 03:22:00,34.0,29.0,30.48,NNW,346,7.0,12.0,81,0.00,,,0.02,,2015-01-30 09:22:00,
2015-01-30 03:43:00,34.0,29.0,30.49,North,9,7.0,11.0,81,0.00,,,0.02,,2015-01-30 09:43:00,
2015-01-30 03:54:00,33.0,28.0,30.49,NNW,348,5.0,11.0,80,0.00,,,0.02,,2015-01-30 09:54:00,
2015-01-30 04:13:00,33.0,28.0,30.48,NW,317,4.0,9.0,80,0.00,,,0.02,,2015-01-30 10:13:00,
2015-01-30 04:23:00,33.0,28.0,30.49,NNW,336,2.0,6.0,81,0.00,,,0.02,,2015-01-30 10:23:00,
2015-01-30 04:44:00,33.0,28.0,30.50,NW,326,5.0,10.0,81,0.00,,,0.02,,2015-01-30 10:44:00,
2015-01-30 04:54:00,33.0,28.0,30.49,NW,325,6.0,12.0,81,0.00,,,0.02,,2015-01-30 10:54:00,
2015-01-30 05:13:00,33.0,28.0,30.49,NW,325,6.0,12.0,80,0.00,,,0.02,,2015-01-30 11:13:00,
2015-01-30 05:23:00,33.0,28.0,30.50,NW,309,5.0,12.0,80,0.00,,,0.02,,2015-01-30 11:23:00,
2015-01-30 05:42:00,33.0,27.0,30.50,NW,312,5.0,11.0,79,0.00,,,0.02,,2015-01-30 11:42:00,
2015-01-30 05:53:00,33.0,27.0,30.51,NNW,329,5.0,8.0,79,0.00,,,0.02,,2015-01-30 11:53:00,
2015-01-30 06:22:00,32.0,26.0,30.53,NNW,327,4.0,9.0,79,0.00,,,0.02,,2015-01-30 12:22:00,
2015-01-30 06:43:00,32.0,27.0,30.53,NNW,344,4.0,8.0,80,0.00,,,0.02,,2015-01-30 12:43:00,
2015-01-30 06:53:00,31.0,26.0,30.54,NNW,344,2.0,10.0,80,0.00,,,0.02,,2015-01-30 12:53:00,
2015-01-30 07:12:00,31.0,25.0,30.55,NNW,341,5.0,11.0,79,0.00,,,0.02,,2015-01-30 13:12:00,
2015-01-30 07:22:00,30.0,24.0,30.55,NNE,13,5.0,10.0,79,0.00,,,0.02,,2015-01-30 13:22:00,
2015-01-30 07:42:00,30.0,24.0,30.56,NNW,333,5.0,9.0,79,0.00,,,0.02,,2015-01-30 13:42:00,
2015-01-30 07:52:00,30.0,24.0,30.57,NNW,336,3.0,8.0,79,0.00,,,0.02,,2015-01-30 13:52:00,
2015-01-30 08:22:00,30.0,24.0,30.57,NNW,346,0.0,7.0,79,0.00,,,0.02,,2015-01-30 14:22:00,
2015-01-30 08:42:00,31.0,25.0,30.57,NNW,331,4.0,10.0,79,0.00,,,0.02,,2015-01-30 14:42:00,
2015-01-30 08:52:00,31.0,25.0,30.58,North,5,5.0,10.0,78,0.00,,,0.02,,2015-01-30 14:52:00,
2015-01-30 09:12:00,31.0,25.0,30.58,NNW,346,7.0,12.0,78,0.00,,,0.02,,2015-01-30 15:12:00,
2015-01-30 09:22:00,32.0,26.0,30.58,North,11,7.0,11.0,78,0.00,,,0.01,,2015-01-30 15:22:00,
2015-01-30 09:54:00,32.0,26.0,30.60,NNW,333,6.0,12.0,77,0.00,,,0.01,,2015-01-30 15:54:00,
2015-01-30 10:13:00,33.0,27.0,30.60,NNW,340,6.0,11.0,77,0.00,,,0.01,,2015-01-30 16:13:00,
2015-01-30 10:24:00,33.0,26.0,30.60,NNW,344,4.0,10.0,76,0.00,,,0.01,,2015-01-30 16:24:00,
2015-01-30 10:44:00,33.0,26.0,30.60,North,11,4.0,11.0,76,0.00,,,0.01,,2015-01-30 16:44:00,
2015-01-30 10:54:00,33.0,26.0,30.60,North,355,0.0,5.0,75,0.00,,,0.01,,2015-01-30 16:54:00,
2015-01-30 11:23:00,34.0,27.0,30.60,NNW,346,3.0,7.0,75,0.00,,,0.01,,2015-01-30 17:23:00,